Regional Weather Roundup
Issued by NWS

Home | Current Version | Previous Version | Graphics & Text | Print | Product List | Glossary Off
Versions: 1 2 3 4 5 6 7 8 9 10 11 12 13 14 15 16 17 18 19 20 21 22 23 24 25 26 27 28 29 30 31 32 33 34 35 36 37 38 39 40 41 42 43 44 45 46 47 48 49 50

000
ASUS43 KMPX 030710
RWRMN
WEATHER ROUNDUP FOR MINNESOTA
NATIONAL WEATHER SERVICE TWIN CITIES/CHANHASSEN MN
200 AM CDT MON AUG 03 2015


NOTE: "FAIR" INDICATES FEW OR NO CLOUDS BELOW 12,000 FEET WITH NO
SIGNIFICANT WEATHER AND/OR OBSTRUCTIONS TO VISIBILITY. N/A MEANS
CURRENT SKY AND/OR WEATHER CONDITIONS ARE NOT AVAILABLE.

MNZ060>063-068>070-030800-
   Twin Cities Metro

CITY           SKY/WX    TMP DP  RH WIND       PRES   REMARKS
TWIN CITIES    CLEAR     65  51  60 W5        29.87S
ST PAUL        CLEAR     65  50  58 NW5       29.87R
CRYSTAL        CLEAR     61  51  70 W6        29.86R
BLAINE         CLEAR     63  52  67 CALM      29.86F
LAKEVILLE      CLEAR     57  54  88 W5        29.88S
EDEN PRAIRIE   CLEAR     63  51  65 W5        29.87S
SOUTH ST PAUL  CLEAR     65  48  54 CALM      29.87S
LAKE ELMO      FAIR      61  52  72 W3        29.87S
$$
MNZ001>005-007-008-013>017-022>024-027-028-030800-
   Northwest Minnesota

CITY           SKY/WX    TMP DP  RH WIND       PRES   REMARKS
BEMIDJI        MOCLDY    55  46  73 W7        29.85S
HALLOCK        PTCLDY    55  50  82 NW6       29.86S
ROSEAU         MOCLDY    57  52  82 W8        29.83S
WARROAD        PTCLDY    57  50  77 W6        29.82S
THIEF RVR FALL MOCLDY    55  48  76 NW6       29.87S
CROOKSTON      CLEAR     52  48  87 CALM      29.88S
FOSSTON        CLEAR     48  45  87 CALM      29.88R
DETROIT LAKES  CLEAR     57  50  77 NW6       29.90S
MOORHEAD       CLEAR     55  50  82 NW7       29.90S
PARK RAPIDS    CLEAR     52  48  86 W3        29.87R
MAHNOMEN       FAIR      52  49  90 W6        29.88R
$$
MNZ006-009>011-018-025>026-030800-
   North Central Minnesota

CITY           SKY/WX    TMP DP  RH WIND       PRES   REMARKS
BAUDETTE       MOCLDY    62  49  62 NW17G24   29.79S
FLAG ISLAND    CLOUDY    63  52  67 NW15G24   29.78S
INTL FALLS     CLOUDY    56  49  77 W5        29.76S
WASKISH        MOCLDY    61  48  63 W10       29.81S
BIG FORK       CLEAR     54  45  71 CALM      29.80F
LONGVILLE      CLEAR     54  48  82 CALM      29.85R
GRAND RAPIDS   CLEAR     57  45  62 W5        29.82S
CRANE LAKE     PTCLDY    55  48  76 W3        29.76S
ORR            PTCLDY    57  46  67 CALM      29.75R
COOK           CLOUDY    57  48  72 W6        29.78R
WALKER         FAIR      49  47  92 W5        29.85S
$$
MNZ012-019>021-037-030800-
   Northeast Minnesota

CITY           SKY/WX    TMP DP  RH WIND       PRES   REMARKS
DULUTH         CLEAR     58  46  64 W9        29.79R
ELY            CLEAR     52  48  87 W5        29.75S
HIBBING        CLEAR     55  44  66 W6        29.79S
EVELETH        PTCLDY    57  46  67 W3        29.79S
DULUTH HARBOR  CLEAR     64  50  59 W12       29.78S
TWO HARBORS    CLEAR     55  50  82 SW3       29.75S
SILVER BAY     CLEAR     52  46  82 CALM      29.74S
GRAND MARAIS     N/A     50  45  83 CALM      29.70R
G MARAIS ARPRT   N/A     55  45  67 W6        29.72S
$$
MNZ029>031-032-039>041-046>048-054>057-064-030800-
   West Central Minnesota

CITY           SKY/WX    TMP DP  RH WIND       PRES   REMARKS
FERGUS FALLS   CLEAR     55  48  76 W3        29.90S
WHEATON        CLEAR     57  52  82 SW6       29.93S
MORRIS         CLEAR     55  52  88 W3        29.91R
ALEXANDRIA     CLEAR     59  51  75 W7        29.91S
ELBOW LAKE     FAIR      56  51  80 NW5       29.90S
WADENA         CLEAR     54  48  82 W5        29.88R
GLENWOOD       CLEAR     57  52  82 W8        29.91S
APPLETON       CLEAR     55  52  88 W5        29.91S
BENSON         CLEAR     52  50  93 CALM      29.91S
ORTONVILLE     CLEAR     57  54  88 CALM      29.93R
MADISON        CLEAR     57  54  88 W5        29.93S
WILLMAR        FAIR      57  54  88 W6        29.92S
$$
MNZ033>034-036-042>043-049>051-058-059-030800-
   Central Minnesota

CITY           SKY/WX    TMP DP  RH WIND       PRES   REMARKS
ST CLOUD       CLEAR     53  50  89 CALM      29.87S
SAUK CENTRE    FAIR      56  51  85 W3        29.90R
PAYNESVILLE    CLEAR     50  49  97 SW6       29.90S
AITKIN         CLEAR     55  48  76 SW3       29.83S
PINE RIVER     CLEAR     52  46  82 CALM      29.89S
BRAINERD       CLEAR     52  48  86 S3        29.86S
STAPLES        CLEAR     54  48  82 CALM      29.87S
LONG PRAIRIE   FAIR      55  50  82 SW3       29.89S
LITTLE FALLS     N/A     50  46  87 CALM      29.87S
LITCHFIELD     CLEAR     61  55  82 SW3       29.90S
BUFFALO        CLEAR     60  51  70 W3        29.89R
MAPLE LAKE     CLEAR     59  54  82 SW3       29.89S
$$
MNZ037-044-045-052-053-030800-
   East Central Minnesota

CITY           SKY/WX    TMP DP  RH WIND       PRES   REMARKS
PRINCETON      CLEAR     55  52  88 CALM      29.87S
MORA           CLEAR     54  48  82 CALM      29.87S
CAMBRIDGE      CLEAR     61  48  63 W3        29.84S
RUSH CITY      MOCLDY    55  49  83 CALM      29.85S
MOOSE LAKE     CLEAR     54  46  76 W5        29.81S
HINCKLEY       FAIR      55  50  82 W5        29.84S
CLOQUET        CLEAR     55  45  67 W6        29.81S
MCGREGOR       CLEAR     57  46  67 W6        29.84S
$$
MNZ071>073-080-081-089-090-097-098-030800-
   Southwest Minnesota

CITY           SKY/WX    TMP DP  RH WIND       PRES   REMARKS
MONTEVIDEO     CLEAR     57  50  77 W6        29.94R
GRANITE FALLS  CLEAR     53  51  94 W7        29.94S
CANBY          CLEAR     58  54  85 W5        29.95S
MARSHALL       CLEAR     57  52  82 NW7       29.94F
REDWOOD FALLS  CLEAR     60  53  77 NW5       29.91R
OLIVIA         CLEAR     54  50  87 CALM      29.91S
PIPESTONE      CLEAR     63  57  82 CALM      29.96S
WINDOM         CLEAR     57  54  88 W5        29.94S
WORTHINGTON    CLEAR     59  52  77 NW7       29.96R
JACKSON        CLEAR     59  55  88 NW8       29.95R
TRACY          CLEAR     61  55  82 W3        29.95S
SLAYTON        CLEAR     57  56  94 CALM      29.97S
$$
MNZ065>067-074>077-082>085-091>093-030800-
   South Central Minnesota

CITY           SKY/WX    TMP DP  RH WIND       PRES   REMARKS
MANKATO        CLEAR     61  52  72 N6        29.90S
NEW ULM        CLEAR     61  55  82 NW5       29.91S
ST JAMES         N/A     57  55  94 W6        29.93R
FAIRMONT       CLEAR     61  52  72 NW3       29.92R
GLENCOE        CLEAR     57  55  91 CALM      29.90R
FARIBAULT      CLEAR     61  54  77 NW5       29.89S
OWATONNA       CLEAR     59  54  82 CALM      29.89S
WASECA         CLEAR     55  52  88 NW5       29.91S
ALBERT LEA     CLEAR     59  57  94 CALM      29.90R
$$
MNZ078>079-086>088-094>096-030800-
   Southeast Minnesota

CITY           SKY/WX    TMP DP  RH WIND       PRES   REMARKS
ROCHESTER      CLEAR     58  54  86 NW8       29.89R
RED WING       CLEAR     59  54  82 CALM      29.85S
STANTON        CLEAR     57  52  83 W6        29.86S
DODGE CENTER   CLEAR     61  52  72 NW7       29.89R
WINONA         CLEAR     64  55  72 CALM      29.84S
AUSTIN         CLEAR     61  55  82 NW3       29.88F
PRESTON        CLEAR     60  55  82 NW6       29.88S
$$
ABBREVIATIONS USED IN REMARKS
   TC - TEMPERATURES IN CELSIUS
  WCI - WIND CHILL INDEX
   HX - HEAT INDEX
  VSB - VISIBILITY
$$


USA.gov is the U.S. government's official web portal to all federal, state and local government web resources and services.